When you browse on this site, cookies collect data to enhance your experience and personalize the content and advertising you see.
Visit our Privacy Policy to learn more. By continuing to use the site, you agree to this use of cookies and data.
  • In Hungary
  • List of Countries
  • For 7 days
  • Water Temperature
  • Weather Map
  • News
  • Weather Widgets
  • user-avatar
    Login

    Hourly Weather Lyubovka

    Today, 22 January, Wednesday

    Time Temperature Precipitation Wind Pressure Humidity
    00:00 0°C° 0 mm 7 mps 740 mmHg 88%
    01:00 +1°C° 0 mm 6 mps 740 mmHg 87%
    02:00 0°C° 0 mm 5 mps 740 mmHg 87%
    03:00 0°C° 0 mm 5 mps 739 mmHg 87%
    04:00 0°C° 0 mm 5 mps 738 mmHg 86%
    05:00 -1°C° 0 mm 5 mps 738 mmHg 86%
    06:00 -1°C° 0.3 mm 5 mps 737 mmHg 89%
    07:00 -1°C° 0.3 mm 5 mps 737 mmHg 92%
    08:00 -1°C° 0 mm 5 mps 737 mmHg 93%
    09:00 -1°C° 0.2 mm 5 mps 736 mmHg 92%
    10:00 -1°C° 0.2 mm 5 mps 735 mmHg 91%
    11:00 0°C° 0.2 mm 5 mps 734 mmHg 90%
    12:00 0°C° 0 mm 5 mps 734 mmHg 86%
    13:00 0°C° 0 mm 5 mps 734 mmHg 83%
    14:00 0°C° 0 mm 5 mps 733 mmHg 79%
    15:00 0°C° 0.1 mm 5 mps 733 mmHg 79%
    16:00 -1°C° 0.1 mm 5 mps 733 mmHg 79%
    17:00 -2°C° 0.1 mm 5 mps 733 mmHg 80%
    18:00 -2°C° 0 mm 5 mps 734 mmHg 79%
    19:00 -4°C° 0 mm 5 mps 735 mmHg 78%
    20:00 -4°C° 0 mm 5 mps 736 mmHg 78%
    21:00 -4°C° 0 mm 5 mps 736 mmHg 78%
    22:00 -4°C° 0 mm 5 mps 736 mmHg 79%
    23:00 -5°C° 0 mm 6 mps 737 mmHg 80%

    Tomorrow, 23 January, Thursday

    Time Temperature Precipitation Wind Pressure Humidity
    00:00 -5°C° 0 mm 6 mps 738 mmHg 79%
    01:00 -5°C° 0 mm 6 mps 738 mmHg 78%
    02:00 -5°C° 0 mm 6 mps 739 mmHg 77%
    03:00 -6°C° 0 mm 7 mps 739 mmHg 74%
    04:00 -6°C° 0 mm 7 mps 739 mmHg 71%
    05:00 -7°C° 0 mm 7 mps 740 mmHg 68%
    06:00 -7°C° 0 mm 7 mps 740 mmHg 67%
    07:00 -7°C° 0 mm 7 mps 741 mmHg 66%
    08:00 -6°C° 0 mm 6 mps 742 mmHg 66%
    09:00 -6°C° 0 mm 6 mps 742 mmHg 65%
    10:00 -7°C° 0 mm 7 mps 743 mmHg 65%
    11:00 -6°C° 0 mm 7 mps 743 mmHg 64%
    12:00 -6°C° 0 mm 7 mps 744 mmHg 60%
    13:00 -5°C° 0 mm 6 mps 744 mmHg 55%
    14:00 -5°C° 0 mm 6 mps 744 mmHg 51%
    15:00 -5°C° 0 mm 6 mps 745 mmHg 52%
    16:00 -5°C° 0 mm 5 mps 745 mmHg 54%
    17:00 -5°C° 0 mm 5 mps 745 mmHg 56%
    18:00 -5°C° 0 mm 5 mps 745 mmHg 57%
    19:00 -5°C° 0 mm 5 mps 745 mmHg 59%
    20:00 -6°C° 0 mm 5 mps 746 mmHg 61%
    21:00 -5°C° 0 mm 4 mps 746 mmHg 65%
    22:00 -4°C° 0 mm 4 mps 746 mmHg 69%
    23:00 -4°C° 0 mm 3 mps 746 mmHg 74%

    Day after tomorrow, 24 January, Friday

    Time Temperature Precipitation Wind Pressure Humidity
    00:00 -4°C° 0 mm 3 mps 746 mmHg 78%
    01:00 -4°C° 0 mm 3 mps 746 mmHg 82%
    02:00 -4°C° 0 mm 3 mps 746 mmHg 86%
    03:00 -4°C° 0 mm 3 mps 745 mmHg 88%
    04:00 -4°C° 0 mm 4 mps 745 mmHg 91%
    05:00 -4°C° 0 mm 4 mps 744 mmHg 93%
    06:00 -4°C° 0 mm 4 mps 744 mmHg 92%
    07:00 -4°C° 0 mm 4 mps 743 mmHg 92%
    08:00 -4°C° 0 mm 5 mps 743 mmHg 91%
    09:00 -4°C° 0.2 mm 5 mps 743 mmHg 92%
    10:00 -4°C° 0.2 mm 6 mps 742 mmHg 93%
    11:00 -4°C° 0.2 mm 6 mps 742 mmHg 94%
    12:00 -3°C° 0.2 mm 6 mps 741 mmHg 95%
    13:00 -2°C° 0.2 mm 6 mps 741 mmHg 95%
    14:00 -1°C° 0.2 mm 6 mps 740 mmHg 95%
    15:00 -1°C° 0.1 mm 6 mps 740 mmHg 95%
    16:00 +1°C° 0.1 mm 6 mps 740 mmHg 95%
    17:00 +1°C° 0.1 mm 6 mps 739 mmHg 94%
    18:00 +1°C° 0 mm 6 mps 739 mmHg 94%
    19:00 +1°C° 0 mm 6 mps 739 mmHg 93%
    20:00 +1°C° 0 mm 6 mps 740 mmHg 93%
    21:00 +1°C° 0 mm 6 mps 739 mmHg 92%
    22:00 +1°C° 0 mm 6 mps 739 mmHg 92%
    23:00 +1°C° 0 mm 6 mps 739 mmHg 92%

    25 January, Saturday

    Time Temperature Precipitation Wind Pressure Humidity
    00:00 +1°C° 0 mm 6 mps 739 mmHg 92%
    01:00 +1°C° 0 mm 6 mps 738 mmHg 93%
    02:00 +1°C° 0 mm 5 mps 738 mmHg 93%
    03:00 +1°C° 0 mm 5 mps 738 mmHg 93%
    04:00 +1°C° 0 mm 5 mps 738 mmHg 93%
    05:00 +1°C° 0 mm 5 mps 737 mmHg 94%
    06:00 +1°C° 0.1 mm 5 mps 737 mmHg 94%
    07:00 +1°C° 0.1 mm 5 mps 737 mmHg 94%
    08:00 +1°C° 0.1 mm 5 mps 738 mmHg 95%
    09:00 +1°C° 0.1 mm 6 mps 738 mmHg 93%
    10:00 +1°C° 0.1 mm 6 mps 738 mmHg 91%
    11:00 +1°C° 0.1 mm 6 mps 738 mmHg 90%
    12:00 +1°C° 0 mm 6 mps 738 mmHg 88%
    13:00 +1°C° 0 mm 6 mps 738 mmHg 86%
    14:00 +1°C° 0 mm 6 mps 738 mmHg 84%
    15:00 -1°C° 0 mm 6 mps 738 mmHg 84%
    16:00 -1°C° 0 mm 6 mps 738 mmHg 83%
    17:00 -2°C° 0 mm 6 mps 738 mmHg 83%
    18:00 -2°C° 0 mm 6 mps 738 mmHg 84%
    19:00 -2°C° 0 mm 6 mps 739 mmHg 85%
    20:00 -2°C° 0 mm 6 mps 739 mmHg 86%
    21:00 -3°C° 0 mm 6 mps 740 mmHg 85%
    22:00 -3°C° 0 mm 6 mps 740 mmHg 85%
    23:00 -3°C° 0 mm 6 mps 741 mmHg 84%

    26 January, Sunday

    Time Temperature Precipitation Wind Pressure Humidity
    00:00 -2°C° 0 mm 5 mps 741 mmHg 85%
    01:00 -2°C° 0 mm 5 mps 742 mmHg 86%
    02:00 -2°C° 0 mm 4 mps 742 mmHg 87%
    03:00 -3°C° 0 mm 4 mps 743 mmHg 87%
    04:00 -3°C° 0 mm 4 mps 743 mmHg 88%
    05:00 -3°C° 0 mm 4 mps 744 mmHg 89%
    06:00 -3°C° 0 mm 4 mps 744 mmHg 89%
    07:00 -4°C° 0 mm 3 mps 745 mmHg 88%
    08:00 -4°C° 0 mm 3 mps 746 mmHg 88%
    09:00 -2°C° 0 mm 3 mps 746 mmHg 83%
    10:00 -1°C° 0 mm 3 mps 747 mmHg 78%
    11:00 -1°C° 0 mm 2 mps 748 mmHg 73%
    12:00 +1°C° 0 mm 2 mps 748 mmHg 73%
    13:00 +1°C° 0 mm 2 mps 748 mmHg 73%
    14:00 +1°C° 0 mm 2 mps 748 mmHg 73%
    15:00 -1°C° 0 mm 2 mps 748 mmHg 78%
    16:00 -1°C° 0 mm 2 mps 748 mmHg 82%
    17:00 -2°C° 0 mm 2 mps 748 mmHg 86%
    18:00 -2°C° 0 mm 2 mps 748 mmHg 86%
    19:00 -2°C° 0 mm 3 mps 748 mmHg 86%
    20:00 -2°C° 0 mm 3 mps 748 mmHg 86%
    21:00 -2°C° 0 mm 3 mps 748 mmHg 88%
    22:00 -2°C° 0 mm 3 mps 748 mmHg 90%
    23:00 -2°C° 0 mm 3 mps 748 mmHg 92%

    27 January, Monday

    Time Temperature Precipitation Wind Pressure Humidity
    00:00 -2°C° 0 mm 3 mps 748 mmHg 92%
    01:00 -2°C° 0 mm 3 mps 748 mmHg 93%
    02:00 -2°C° 0 mm 3 mps 748 mmHg 94%
    03:00 -2°C° 0 mm 3 mps 748 mmHg 93%
    04:00 -2°C° 0 mm 3 mps 748 mmHg 92%
    05:00 -1°C° 0 mm 3 mps 748 mmHg 91%
    06:00 -1°C° 0 mm 3 mps 747 mmHg 91%
    07:00 -1°C° 0 mm 3 mps 747 mmHg 91%
    08:00 -1°C° 0 mm 3 mps 747 mmHg 91%
    09:00 -1°C° 0 mm 3 mps 747 mmHg 91%
    10:00 -2°C° 0 mm 4 mps 747 mmHg 90%
    11:00 -1°C° 0 mm 4 mps 747 mmHg 90%
    12:00 -1°C° 0.1 mm 4 mps 746 mmHg 92%
    13:00 -1°C° 0.1 mm 4 mps 745 mmHg 94%
    14:00 -1°C° 0.1 mm 4 mps 745 mmHg 96%
    15:00 -1°C° 0.1 mm 4 mps 744 mmHg 96%
    16:00 -1°C° 0.1 mm 4 mps 744 mmHg 97%
    17:00 -1°C° 0.1 mm 4 mps 744 mmHg 97%
    18:00 -1°C° 0.1 mm 4 mps 743 mmHg 97%
    19:00 -1°C° 0.1 mm 4 mps 743 mmHg 97%
    20:00 0°C° 0.1 mm 4 mps 742 mmHg 97%
    21:00 -1°C° 0.1 mm 4 mps 742 mmHg 97%
    22:00 -1°C° 0.1 mm 5 mps 741 mmHg 97%
    23:00 -2°C° 0.1 mm 5 mps 741 mmHg 97%
    Show more